EDT,Max TemperatureF,Mean TemperatureF,Min TemperatureF,Max Dew PointF,MeanDew PointF,Min DewpointF,Max Humidity, Mean Humidity, Min Humidity, Max Sea Level PressureIn, Mean Sea Level PressureIn, Min Sea Level PressureIn, Max VisibilityMiles, Mean VisibilityMiles, Min VisibilityMiles, Max Wind SpeedMPH, Mean Wind SpeedMPH, Max Gust SpeedMPH,PrecipitationIn, CloudCover, Events, WindDirDegrees
2013-10-1,74,64,53,61,58,52,100,88,62,30.06,30.02,29.99,10,6,0,16,7,22,0.00,5,Fog,216
2013-10-2,82,71,59,65,62,57,100,85,47,30.12,30.07,30.02,10,5,0,10,3,13,0.00,5,Fog,219
2013-10-3,81,72,62,67,64,60,100,85,46,30.06,30.02,29.94,10,6,1,16,7,25,0.17,6,Rain,201
2013-10-4,85,75,64,70,66,63,94,78,54,30.04,30.01,29.97,10,9,6,16,7,21,0.06,6,Rain-Thunderstorm,197
2013-10-5,79,70,61,70,66,60,100,89,61,30.04,29.98,29.88,10,7,1,18,7,24,0.49,6,Rain,190
2013-10-6,68,57,45,66,57,41,100,90,66,29.89,29.77,29.73,10,8,0,18,10,26,0.54,8,Fog-Rain,240
2013-10-7,61,52,42,46,42,40,90,74,42,30.16,29.95,29.80,10,10,10,20,8,28,T,4,Rain,247
2013-10-8,70,55,40,50,43,39,93,69,31,30.29,30.24,30.17,10,10,6,12,2,18,0.00,0,,140
2013-10-9,73,57,40,48,43,39,93,65,23,30.30,30.24,30.20,10,10,6,12,4,15,0.00,0,,75
2013-10-10,74,58,41,50,44,40,96,68,26,30.23,30.18,30.12,10,9,4,8,1,12,0.00,1,Fog,40
2013-10-11,78,61,44,51,46,42,97,67,25,30.15,30.10,30.05,10,8,2,9,3,14,0.00,1,,81
2013-10-12,80,63,46,55,50,45,97,66,25,30.11,30.07,30.03,10,10,9,13,4,18,0.00,3,,213
2013-10-13,70,57,44,58,45,39,89,59,23,30.38,30.28,30.12,10,10,10,13,7,18,0.00,2,,336
2013-10-14,66,53,40,50,43,38,93,71,35,30.40,30.33,30.25,10,10,10,14,7,18,0.00,1,,37
2013-10-15,66,55,43,61,52,41,100,87,72,30.23,30.04,29.89,10,7,2,17,7,23,0.01,8,Rain,142
2013-10-16,63,54,44,61,47,41,94,74,44,29.98,29.92,29.87,10,10,8,18,9,24,T,5,,255
2013-10-17,52,46,39,47,44,39,97,87,69,29.96,29.90,29.84,10,9,5,16,8,21,0.14,6,Rain,230
2013-10-18,66,52,38,45,40,36,97,74,28,29.99,29.95,29.90,10,10,7,20,9,25,0.00,2,,234
2013-10-19,53,46,38,41,38,31,93,79,36,29.95,29.89,29.84,10,8,3,17,8,24,0.24,7,Rain,243
2013-10-20,63,51,38,41,38,34,82,61,34,29.96,29.92,29.89,10,10,10,23,13,29,0.00,5,,211
2013-10-21,57,47,36,46,41,27,83,72,61,29.97,29.91,29.88,10,10,7,21,11,25,0.02,6,Rain,241
2013-10-22,49,40,30,34,28,22,92,63,34,30.03,29.97,29.93,10,9,6,15,6,21,0.11,5,Rain,270
2013-10-23,45,39,33,37,34,28,100,82,64,30.04,29.93,29.83,10,6,0,18,6,24,0.05,7,Fog-Rain,297
2013-10-24,45,38,31,34,29,25,92,76,60,30.27,30.13,30.02,10,10,10,15,7,21,T,6,Rain,272
2013-10-25,49,39,28,31,26,24,92,66,39,30.42,30.33,30.21,10,10,10,16,9,25,0.00,2,,250
2013-10-26,54,44,34,36,30,25,82,64,46,30.19,30.01,29.88,10,10,10,30,14,39,0.00,6,,245
2013-10-27,55,42,29,34,30,27,96,66,35,30.12,30.07,30.04,10,10,10,15,5,18,0.00,3,,232
2013-10-28,60,45,29,37,32,26,92,64,36,30.36,30.24,30.10,10,10,8,10,3,15,0.00,4,,67
2013-10-29,54,44,33,40,36,30,96,78,59,30.42,30.34,30.23,10,10,9,10,6,14,0.00,6,,85
2013-10-30,63,51,39,61,49,36,93,83,72,30.22,30.10,29.94,10,6,1,16,6,22,0.10,7,Rain-Thunderstorm,138
2013-10-31,64,59,53,61,59,54,100,92,84,29.93,29.56,29.25,10,4,2,26,17,35,1.73,8,Rain,205